Temp_Advection
nan nan nan nan nan nan nan nan nan nan nan nan nan nan nan nan nan nan nan nan nan nan nan nan nan nan nan nan nan nan nan nan nan nan nan nan nan nan nan nan nan nan nan nan nan
nan -0 0 -0 -0 0 -0 -0 -0 0 -0 -0 -0 -0 -0 -0 -1 -1 -1 -1 -0 0 -0 -0 -0 -0 -1 -0 -0 -1 -0 -1 -0 0 0 0 0 0 -0 -0 0 0 0 0 nan
nan -0 -1 -1 0 0 -0 -0 -0 -0 0 -0 -0 -0 -0 -0 -1 -1 -0 -1 -1 0 1 0 -0 -1 -1 -0 -0 -0 -1 0 1 0 -0 -0 0 0 -0 0 0 0 0 0 nan
nan -0 0 -0 -1 -0 -0 -0 -0 0 0 -0 -0 -0 0 -1 -0 0 -0 -0 0 0 0 -0 -1 -1 -1 -0 -0 -0 -0 0 0 0 -0 -0 -0 0 -0 0 0 0 0 0 nan
nan -1 -0 -0 -0 -1 -0 -0 0 0 -0 0 -0 0 0 -1 -1 -0 -0 -0 -0 -0 0 -0 -1 -1 -1 -0 0 -0 -0 0 0 -0 -0 -0 -0 -0 0 0 0 0 1 0 nan
nan -0 -1 -0 -0 -0 -0 -0 0 -0 -0 0 0 0 -0 -2 -1 -1 -0 0 0 -0 -0 -0 -0 -0 -1 -0 -0 -0 0 0 0 0 -0 -0 -0 0 -0 -0 0 0 0 0 nan
nan 0 -0 -0 -0 -0 -0 -0 -0 -0 -0 -0 0 1 -0 -2 -1 -0 -0 1 1 -0 -0 -0 -0 -0 -0 -0 0 -0 -1 -0 -0 -0 -0 0 -1 -1 -0 -0 0 0 0 0 nan
nan 0 -0 -0 -0 -0 -0 -0 -1 -1 -0 0 0 1 -0 -1 -1 -1 -0 0 0 -0 -0 -0 -0 -1 -1 -0 -0 -0 -0 -1 -1 0 1 -0 -2 -1 0 1 0 0 0 0 nan
nan 0 0 -0 -0 -0 -0 -0 -0 -0 -0 0 0 0 -0 -0 -0 -1 -0 1 0 -0 -0 -0 -1 -1 -0 -1 -1 -0 -0 -0 -0 -0 0 -0 -1 -1 1 0 0 0 0 0 nan
nan 0 0 -0 -0 -0 -0 -0 -0 -0 -0 -0 -0 -0 -1 -0 -0 -0 -0 -0 -0 -0 -0 -1 -1 -1 -1 -0 -0 -1 -0 -0 -1 0 0 -0 -1 -0 0 -0 -0 0 0 0 nan
nan -0 0 -0 -0 -0 -0 -0 -0 0 -1 -1 -0 -1 0 -0 -0 -0 -0 -0 -1 -1 -1 -1 -0 -1 -1 -1 -1 -0 0 -1 -1 1 0 -1 -1 -0 -0 0 0 0 0 1 nan
nan -0 0 -0 -0 -0 -0 -0 0 -0 -1 -1 -1 -1 -0 0 0 -0 -0 -1 -1 -1 -1 -0 -1 -2 -0 0 1 0 -0 -1 -1 1 0 -1 -2 -1 -0 1 0 -0 0 1 nan
nan 0 0 -0 -0 -0 -0 -0 -0 -0 -1 -1 -1 -1 0 0 -0 -0 -0 -1 -1 -1 -0 -1 -2 -0 0 1 0 0 -1 -1 -0 0 1 -0 -2 -2 -1 0 0 0 0 1 nan
nan 0 0 -0 -0 -0 -0 -0 -0 -0 -1 -1 -1 -0 -1 -0 -1 -0 -0 0 -0 -0 -0 -1 -1 1 1 0 -0 -1 -1 0 0 1 -1 -1 -1 -3 -1 0 1 1 1 1 nan
nan 0 -0 0 0 -0 -0 -0 -0 0 -1 -1 -1 0 0 -0 -1 -1 -0 -0 -1 0 0 -0 -0 -0 -0 -1 -0 -1 -0 0 1 0 -0 -0 -1 -3 -1 -0 0 1 1 1 nan
nan 0 0 0 -0 -0 -0 -0 -0 -0 -2 -1 0 0 0 -0 -1 -0 0 0 0 0 1 -2 -0 -0 -0 -0 -0 0 1 0 1 1 -0 -2 -1 -2 -1 -0 -0 0 1 1 nan
nan 0 0 -0 -0 -0 -0 -0 -0 -1 -0 0 0 0 1 -0 -0 1 0 0 0 0 -0 -3 -2 -1 0 0 0 1 1 0 1 -0 -2 -1 -0 -2 -0 -0 0 1 1 1 nan
nan -0 0 -0 -0 0 0 0 -0 -0 -1 0 -0 2 1 -1 -0 1 1 -1 -1 -2 -2 -1 -1 -2 -0 -0 0 0 1 -0 -1 -2 -1 0 -1 -3 -0 0 1 1 1 2 nan
nan 0 -0 -0 -0 0 0 -0 -1 -1 -1 -0 1 -0 -1 -1 0 1 -0 -1 -1 -1 -1 -1 -2 -1 0 -0 0 1 -1 0 0 0 -1 -1 -1 -1 0 1 0 0 1 2 nan
nan 0 -0 -0 0 0 -0 -0 -1 -1 -0 0 -0 -0 -0 0 2 -0 -1 -1 -2 -1 -1 0 -1 0 -0 1 1 -0 0 2 1 1 -1 -2 -3 -2 -0 1 1 1 1 2 nan
nan -0 -0 0 0 -0 -1 -0 -1 -1 -0 0 0 -0 -1 -0 -0 -1 0 -1 -1 -1 1 0 0 -1 0 0 -0 -0 1 -0 1 0 -0 -1 -2 -3 -1 0 0 -0 1 1 nan
nan -0 0 0 -0 -0 -0 -0 -0 -0 -0 -0 -0 1 0 -0 -0 -0 -1 -2 3 4 1 -0 1 0 -1 -0 0 1 0 1 1 0 -0 0 -3 -2 -0 -0 0 1 1 2 nan
nan -0 0 0 -0 -0 -0 -0 -1 -0 -0 0 -0 -1 0 1 0 -0 -0 -0 -3 -4 -1 4 2 -0 -1 -1 0 1 -0 0 0 0 0 -0 -3 -3 0 1 0 1 2 3 nan
nan -0 -0 -1 -1 -0 0 0 -0 -1 -1 -0 -0 -0 1 0 1 0 -1 -0 1 1 -3 -4 -2 -0 -1 -1 1 -0 -1 0 1 0 -1 -2 -4 -1 0 -0 1 1 2 2 nan
nan -0 -0 -0 -1 -1 -0 0 0 -0 -1 -0 0 0 0 0 -0 -1 -2 -2 0 2 1 -1 -1 -1 -2 -2 -0 -1 -1 -0 0 -1 -2 -3 -2 -2 -1 -0 1 1 1 1 nan
nan 0 -0 -1 -0 -0 0 0 -1 -1 -0 0 -1 -1 0 0 0 -0 -1 -0 -0 0 1 -0 -2 -0 -1 -2 0 -0 -0 0 -0 -1 -1 -0 -3 -3 0 1 2 1 1 0 nan
nan nan nan nan nan nan nan nan nan nan nan nan nan nan nan nan nan nan nan nan nan nan nan nan nan nan nan nan nan nan nan nan nan nan nan nan nan nan nan nan nan nan nan nan nan
Wind_Speed
27 23 20 21 22 23 20 19 19 19 19 19 19 18 19 20 19 18 19 15 12 12 12 9 7 7 6 9 9 8 7 11 13 10 5 6 9 6 3 6 6 5 4 3 6
31 28 25 22 20 22 23 23 22 19 18 19 19 19 18 18 20 23 22 22 23 21 18 13 11 10 12 10 9 14 11 15 7 10 7 7 8 5 7 8 8 9 8 8 10
29 26 24 26 26 22 20 23 25 22 20 18 18 18 18 15 15 12 14 17 20 20 20 14 13 13 16 13 15 13 17 14 10 13 10 13 11 8 11 12 12 10 7 9 13
20 22 23 21 24 24 25 22 25 25 22 17 18 17 16 11 7 4 7 5 1 4 12 12 15 18 15 16 18 13 19 16 13 12 12 14 15 14 15 16 10 11 14 14 17
17 18 19 21 21 22 24 24 24 21 25 20 18 18 14 12 19 4 9 6 5 5 1 12 16 19 17 13 18 18 18 14 17 17 17 17 20 19 26 18 18 18 16 17 19
15 14 15 17 19 21 20 21 23 25 21 24 21 20 16 24 17 26 20 14 12 8 5 7 9 16 15 19 15 5 20 21 17 17 18 16 20 13 28 13 13 13 15 17 20
15 13 13 13 15 18 19 20 19 20 22 24 21 24 21 29 15 11 20 31 25 13 11 8 10 11 6 14 18 17 19 18 17 17 17 18 21 23 33 22 20 15 15 15 18
15 13 13 12 13 15 16 17 19 18 21 21 15 22 15 12 26 28 12 10 19 17 14 12 9 13 18 10 10 12 18 19 18 21 23 12 19 18 21 19 18 13 12 11 13
15 14 13 12 12 11 12 15 15 17 17 21 10 21 9 13 26 24 28 24 8 7 7 8 10 16 12 16 15 16 17 19 17 16 13 19 18 20 22 20 20 13 10 9 12
14 13 13 11 12 12 10 10 10 10 11 11 16 10 20 7 11 21 23 27 23 17 11 11 12 13 15 15 20 20 17 18 18 6 14 19 21 16 12 17 18 16 10 10 13
12 11 11 11 10 10 8 2 3 6 16 19 12 19 4 11 6 18 18 23 22 18 23 17 13 25 31 25 22 22 15 21 18 13 12 19 21 18 22 24 23 25 21 15 16
13 11 10 9 10 8 6 2 2 5 9 28 32 27 28 14 8 11 19 20 23 27 22 20 26 30 25 24 22 23 23 24 20 16 13 20 26 24 22 27 28 27 25 22 19
15 11 9 8 9 10 8 8 10 14 7 17 29 39 30 18 8 17 22 20 20 22 29 29 34 24 24 25 24 27 28 24 22 14 14 17 29 29 26 35 33 31 30 29 26
13 11 10 9 8 6 6 8 6 4 5 12 21 27 41 35 18 28 24 15 12 22 24 27 35 28 25 28 27 28 26 24 21 17 18 12 22 27 19 20 19 25 30 32 27
12 10 11 11 6 5 4 5 3 9 6 9 29 12 28 40 23 36 34 26 21 15 20 26 22 28 31 29 25 29 24 22 20 20 20 26 15 31 20 23 21 16 24 26 27
10 9 9 7 10 10 10 11 4 6 11 6 8 18 21 30 38 14 38 41 30 18 17 33 25 22 35 31 23 18 18 13 18 15 18 32 19 32 23 25 18 18 27 28 26
12 9 10 9 6 6 7 5 6 12 1 6 9 14 25 22 25 31 26 27 18 17 15 30 30 25 21 23 28 24 17 13 13 14 21 13 17 30 7 14 14 22 25 23 26
11 10 11 10 8 7 5 6 13 5 24 4 6 19 18 23 24 26 25 25 30 26 20 25 23 32 29 34 26 32 28 15 21 20 23 20 16 24 16 19 25 29 24 23 27
10 13 11 11 10 10 9 9 8 15 11 21 11 7 13 21 15 22 27 29 32 33 26 24 34 22 30 32 26 31 24 34 24 18 11 16 24 33 28 20 10 18 20 25 31
11 8 11 11 14 14 6 10 8 19 19 11 9 7 4 19 19 18 20 18 33 37 34 29 24 28 23 23 32 30 24 20 15 10 22 22 30 25 19 21 19 20 23 26 27
10 5 7 13 15 13 11 11 15 21 18 11 17 8 10 13 7 21 16 20 31 27 33 34 25 26 24 27 31 23 26 20 18 16 14 20 20 34 26 22 18 22 29 27 29
9 4 12 20 9 6 12 6 12 14 15 18 20 21 20 20 14 9 5 19 24 33 30 36 15 26 30 24 29 32 30 29 13 15 20 22 22 18 6 13 19 24 32 27 26
6 6 12 21 8 11 6 5 17 15 15 11 15 18 16 13 5 9 8 5 26 19 23 26 17 21 20 26 18 25 28 30 28 8 20 18 21 23 24 12 14 20 24 22 24
6 4 7 22 20 15 14 15 14 15 18 22 21 19 21 20 18 12 19 14 15 22 31 20 19 22 25 26 26 21 30 31 29 19 22 23 31 31 11 16 15 17 20 22 25
12 6 9 5 12 18 14 7 13 12 16 16 11 19 20 16 13 16 23 29 26 25 11 9 9 26 32 31 29 33 31 36 35 34 29 32 36 41 28 19 15 18 17 21 26
9 6 9 16 15 19 20 18 21 21 18 14 18 19 18 18 18 17 21 17 19 11 13 5 10 22 25 32 34 35 31 32 37 38 36 38 37 41 25 29 23 20 22 26 29
20 18 7 11 16 16 17 21 21 22 22 28 23 19 19 25 25 25 25 24 20 18 12 12 6 7 21 31 29 24 30 35 36 34 37 34 40 37 27 19 21 25 28 31 33
Wind_Direction
258 254 251 251 253 266 260 257 255 255 255 256 258 264 272 278 279 285 276 257 270 263 258 277 265 231 218 213 208 215 241 244 235 234 215 175 210 200 255 245 208 207 222 176 182
259 258 259 255 251 252 262 262 256 253 254 255 257 258 265 276 284 281 274 275 270 258 255 253 242 225 222 219 206 214 231 243 252 248 254 200 233 202 237 201 217 222 223 232 227
261 259 262 259 259 253 249 258 266 258 253 255 254 257 260 272 296 271 261 263 261 255 246 243 234 227 233 222 213 217 241 238 240 246 261 259 239 237 248 242 238 229 227 251 239
266 262 260 260 257 257 254 251 260 255 255 253 255 253 252 246 250 219 218 215 108 223 227 224 218 217 227 223 226 246 235 250 239 243 244 252 270 253 256 261 248 256 270 269 245
280 271 263 260 258 257 254 250 245 247 248 244 254 249 243 231 232 243 199 209 343 43 164 219 226 223 234 236 237 236 249 233 244 244 248 258 258 270 267 264 266 272 267 257 248
287 282 272 264 261 260 256 253 249 243 247 239 237 243 229 243 251 233 232 239 273 267 275 226 229 235 275 252 236 252 251 251 238 236 237 244 253 253 263 258 262 271 267 258 254
285 286 284 276 267 263 264 259 255 247 237 235 227 236 231 235 245 236 239 238 246 254 251 240 247 236 252 258 250 259 257 250 231 236 238 245 253 244 255 263 266 266 263 260 250
275 280 284 289 284 275 268 265 258 254 244 239 231 223 232 250 240 234 230 227 236 249 248 245 239 243 248 260 248 241 240 253 243 232 227 224 255 240 248 243 236 251 266 262 247
268 271 273 284 294 297 281 268 262 253 249 233 236 206 250 237 239 241 230 230 217 221 241 226 226 228 226 237 247 226 251 233 252 228 233 220 249 246 245 227 235 228 243 257 246
261 262 263 278 292 297 301 281 259 251 248 229 236 195 234 210 225 235 230 222 226 232 241 226 226 221 222 223 230 232 230 250 246 200 231 240 244 254 213 216 221 232 232 237 239
257 261 265 267 281 296 308 328 226 235 216 206 202 214 107 212 199 229 209 202 206 215 219 199 215 223 221 221 245 257 253 252 252 250 283 259 260 254 245 237 233 243 242 238 235
256 263 267 265 276 280 315 253 268 333 283 231 236 231 236 203 182 186 185 182 193 211 209 215 226 230 234 237 231 243 247 249 256 263 283 274 271 267 255 250 246 243 241 238 233
260 256 256 263 279 286 285 269 271 273 268 252 232 230 213 197 206 188 186 197 198 212 208 214 231 227 234 229 231 231 235 244 253 249 249 281 280 261 252 251 245 246 244 245 232
255 253 254 268 295 260 256 255 258 235 265 249 219 237 219 218 238 213 201 186 207 218 217 227 236 234 224 230 221 239 232 248 257 254 254 236 273 274 267 261 246 229 239 236 220
259 253 256 254 221 225 230 248 314 171 246 200 211 216 208 201 217 214 212 212 228 205 198 224 226 227 231 226 224 242 246 246 238 244 257 251 262 266 268 260 243 231 232 224 216
244 253 242 247 242 236 243 252 275 209 228 227 184 200 186 203 218 222 203 216 225 240 222 241 231 220 229 232 230 237 235 238 237 237 243 244 242 270 257 258 241 244 240 226 213
245 253 236 228 245 241 219 216 220 231 213 213 195 203 206 199 216 217 191 199 200 189 196 236 238 237 228 232 225 214 211 219 219 216 238 237 224 247 237 295 254 235 236 227 210
224 240 234 225 217 178 170 204 225 229 245 42 296 210 215 217 213 211 207 204 208 199 206 224 225 216 213 221 211 213 213 219 223 231 242 226 243 246 235 258 262 249 240 223 202
222 235 235 231 216 204 194 212 232 243 268 252 262 318 226 216 230 207 224 222 205 218 214 222 233 228 217 219 221 220 213 224 248 275 280 259 236 250 257 250 243 234 228 204 202
216 227 235 228 206 191 209 234 233 236 259 307 285 208 271 224 205 204 199 220 228 218 227 238 249 221 215 220 222 227 214 220 226 218 236 244 254 263 250 254 217 227 220 213 201
216 212 207 207 182 196 230 224 234 245 256 244 264 284 297 284 280 218 204 218 208 224 221 234 240 251 230 205 211 210 222 212 219 219 235 249 250 253 256 252 218 222 219 210 198
204 214 193 177 186 208 234 229 260 259 254 253 263 264 267 285 292 276 298 241 208 213 215 224 233 245 235 220 221 221 212 211 214 208 222 230 253 244 300 263 231 227 220 207 200
205 202 183 183 219 223 220 240 248 253 251 244 247 258 258 273 282 328 348 315 324 353 227 221 220 239 242 246 220 221 217 219 213 225 219 214 241 244 250 231 236 228 216 205 194
194 196 177 210 227 241 233 234 236 245 252 249 257 266 272 271 264 281 289 289 298 306 316 311 237 214 231 220 222 234 227 220 214 218 224 216 238 243 240 238 228 222 204 195 191
208 230 205 199 226 224 231 236 228 234 236 241 246 243 253 266 261 254 263 272 277 275 295 315 240 219 240 240 247 221 222 224 225 218 221 228 231 247 233 228 221 208 191 188 189
200 201 226 249 233 221 233 233 239 246 242 246 249 263 262 264 264 265 265 273 275 262 280 304 299 234 240 243 239 244 240 226 229 228 230 235 243 248 241 241 217 204 195 197 196
216 232 247 246 237 244 240 233 244 250 251 246 254 261 262 255 275 276 275 279 268 278 262 257 253 305 235 237 244 247 237 240 232 232 231 233 235 245 239 225 215 197 198 200 197
Height
1503 1504 1504 1505 1507 1508 1509 1510 1512 1513 1514 1515 1515 1516 1517 1517 1516 1516 1516 1519 1518 1517 1517 1518 1519 1519 1519 1518 1518 1518 1511 1504 1500 1503 1497 1504 1504 1507 1507 1505 1507 1507 1507 1508 1508
1496 1498 1500 1500 1501 1503 1504 1506 1507 1509 1510 1511 1512 1512 1513 1514 1513 1511 1513 1511 1512 1513 1514 1516 1516 1517 1515 1514 1514 1511 1504 1498 1497 1500 1499 1503 1504 1503 1506 1504 1504 1506 1506 1506 1506
1491 1493 1494 1494 1496 1498 1499 1501 1503 1505 1506 1507 1508 1510 1511 1512 1513 1507 1505 1506 1505 1507 1509 1513 1514 1514 1511 1510 1508 1503 1499 1495 1502 1503 1502 1500 1501 1502 1501 1499 1502 1501 1503 1505 1505
1487 1488 1489 1489 1491 1492 1494 1496 1498 1500 1502 1503 1505 1506 1508 1511 1510 1500 1502 1504 1503 1502 1506 1510 1511 1510 1507 1503 1502 1502 1499 1497 1499 1500 1502 1499 1498 1499 1498 1497 1500 1501 1501 1502 1501
1483 1484 1484 1485 1485 1487 1489 1490 1493 1495 1497 1500 1501 1503 1506 1506 1501 1500 1500 1502 1503 1503 1506 1508 1508 1506 1501 1499 1499 1499 1494 1495 1498 1498 1499 1499 1497 1496 1491 1495 1496 1497 1497 1496 1496
1480 1480 1480 1481 1481 1483 1484 1485 1487 1490 1492 1494 1497 1499 1502 1498 1495 1496 1499 1500 1501 1503 1505 1506 1506 1505 1501 1497 1496 1491 1493 1491 1493 1494 1495 1496 1493 1495 1485 1491 1491 1492 1491 1491 1491
1477 1477 1478 1477 1477 1478 1479 1481 1483 1483 1487 1490 1492 1493 1493 1488 1489 1491 1493 1496 1497 1500 1503 1503 1505 1506 1500 1499 1495 1495 1492 1489 1488 1491 1488 1491 1488 1485 1480 1486 1485 1486 1486 1486 1486
1474 1474 1474 1474 1474 1474 1475 1477 1478 1479 1482 1485 1485 1487 1478 1481 1485 1489 1490 1490 1492 1495 1499 1502 1502 1503 1501 1496 1495 1493 1488 1483 1475 1479 1484 1489 1476 1471 1474 1478 1480 1480 1481 1481 1481
1470 1470 1470 1471 1471 1471 1472 1472 1474 1475 1477 1481 1483 1483 1475 1473 1476 1481 1485 1488 1492 1493 1495 1499 1500 1498 1497 1495 1490 1483 1479 1474 1473 1472 1475 1478 1468 1465 1467 1472 1473 1475 1475 1476 1477
1466 1467 1467 1468 1467 1468 1468 1469 1470 1471 1475 1478 1479 1483 1470 1468 1472 1473 1477 1483 1487 1492 1494 1495 1496 1490 1488 1484 1477 1477 1478 1478 1472 1466 1473 1466 1465 1462 1465 1467 1468 1467 1469 1471 1472
1462 1463 1464 1465 1465 1465 1467 1469 1473 1472 1468 1461 1460 1460 1460 1464 1468 1466 1470 1475 1481 1484 1481 1486 1489 1472 1466 1471 1473 1470 1470 1471 1465 1464 1470 1467 1459 1456 1458 1457 1461 1461 1463 1465 1466
1459 1460 1461 1462 1463 1464 1464 1467 1469 1466 1461 1457 1457 1457 1461 1461 1464 1463 1467 1470 1472 1464 1477 1479 1468 1455 1467 1468 1473 1475 1473 1468 1465 1465 1473 1464 1454 1450 1450 1448 1451 1453 1454 1456 1460
1455 1457 1458 1459 1461 1463 1464 1466 1464 1463 1462 1449 1446 1449 1454 1458 1458 1458 1462 1461 1460 1463 1458 1457 1440 1464 1462 1464 1468 1466 1464 1464 1465 1463 1467 1467 1446 1438 1437 1439 1442 1445 1447 1447 1450
1452 1454 1456 1457 1462 1460 1462 1462 1461 1463 1459 1440 1436 1433 1445 1450 1446 1452 1454 1456 1454 1449 1455 1452 1440 1450 1453 1455 1459 1460 1457 1462 1464 1470 1468 1457 1443 1420 1418 1418 1421 1431 1437 1438 1441
1449 1451 1453 1455 1457 1459 1461 1461 1461 1463 1453 1419 1418 1423 1426 1434 1421 1435 1447 1451 1443 1445 1449 1431 1438 1443 1445 1441 1451 1445 1456 1455 1460 1463 1465 1457 1459 1401 1418 1419 1419 1426 1428 1432 1434
1447 1448 1450 1452 1453 1457 1458 1459 1462 1460 1435 1409 1409 1413 1420 1424 1424 1428 1434 1442 1442 1447 1444 1428 1430 1436 1431 1437 1444 1449 1454 1455 1455 1458 1462 1431 1454 1387 1409 1408 1413 1418 1420 1423 1427
1444 1446 1448 1450 1453 1453 1455 1459 1458 1435 1415 1409 1407 1408 1410 1415 1420 1420 1424 1429 1429 1438 1448 1428 1427 1427 1432 1433 1436 1443 1449 1456 1461 1453 1436 1427 1438 1385 1395 1397 1402 1409 1416 1418 1421
1441 1443 1445 1447 1450 1452 1454 1456 1445 1425 1422 1411 1409 1406 1407 1408 1411 1416 1413 1414 1419 1415 1410 1417 1419 1416 1412 1413 1416 1427 1434 1437 1449 1433 1416 1422 1431 1378 1390 1397 1400 1405 1407 1412 1417
1439 1440 1442 1444 1448 1450 1454 1448 1436 1431 1422 1416 1410 1419 1405 1401 1404 1411 1408 1401 1403 1405 1403 1392 1394 1392 1402 1407 1420 1410 1428 1411 1427 1419 1426 1405 1392 1381 1388 1391 1400 1400 1403 1405 1410
1435 1438 1439 1441 1444 1448 1451 1440 1436 1430 1427 1427 1426 1417 1407 1393 1404 1404 1403 1396 1394 1394 1396 1387 1388 1384 1391 1406 1407 1408 1408 1432 1428 1445 1441 1414 1401 1370 1380 1378 1387 1394 1396 1399 1405
1434 1435 1434 1436 1441 1445 1435 1430 1429 1429 1429 1429 1422 1421 1409 1404 1406 1387 1378 1381 1387 1388 1391 1387 1390 1379 1379 1385 1390 1395 1398 1402 1409 1417 1420 1414 1396 1361 1376 1376 1381 1385 1389 1393 1398
1430 1430 1429 1432 1438 1434 1429 1429 1431 1427 1427 1425 1422 1418 1419 1413 1409 1401 1390 1370 1376 1383 1384 1379 1383 1380 1375 1367 1377 1381 1385 1389 1414 1418 1405 1401 1386 1365 1367 1365 1369 1375 1379 1385 1393
1426 1426 1427 1430 1426 1425 1426 1427 1427 1426 1423 1421 1419 1412 1412 1412 1412 1408 1400 1393 1394 1393 1379 1378 1381 1386 1379 1377 1369 1370 1370 1372 1383 1398 1399 1404 1383 1366 1363 1369 1370 1370 1372 1382 1389
1423 1421 1424 1423 1418 1418 1418 1420 1423 1420 1417 1416 1414 1415 1411 1409 1411 1409 1400 1393 1393 1398 1397 1398 1369 1366 1359 1353 1358 1376 1365 1362 1368 1389 1380 1379 1361 1346 1357 1361 1368 1369 1370 1377 1384
1416 1412 1411 1411 1414 1415 1414 1413 1414 1415 1411 1409 1405 1406 1406 1404 1404 1406 1399 1384 1388 1391 1396 1396 1366 1362 1350 1348 1347 1350 1353 1354 1353 1359 1368 1353 1351 1323 1343 1355 1360 1363 1369 1374 1379
1409 1409 1407 1402 1401 1405 1406 1406 1407 1403 1405 1404 1403 1399 1397 1395 1392 1395 1390 1383 1381 1384 1391 1394 1374 1359 1353 1342 1345 1338 1333 1339 1343 1339 1341 1344 1342 1315 1341 1346 1352 1358 1363 1368 1372
1401 1402 1403 1396 1396 1395 1392 1395 1395 1396 1397 1396 1394 1393 1390 1382 1383 1385 1383 1383 1381 1379 1383 1390 1391 1376 1346 1342 1342 1347 1339 1327 1325 1328 1331 1332 1316 1316 1331 1333 1343 1349 1354 1358 1362